[[{"header":{"parameterUnit":"m.s-1","parameterCategory":1,"la1":30.2991,"la2":30.254,"lo1":-89.0895,"lo2":-89.0444,"dy":0.0017,"dx":0.0017,"nx":28,"ny":28,"refTime":"2026-02-09T03:00:00:Z","depth":0,"parameterNumber":2,"parameterNumberName":"U-component_of_WINDS"},"data":[0,0,0,0,0,0,0,0,0,0,0,0,0,0,0,0,0,0,0,0,0,0,0,0,0,0,0,0,0,0,0,0,0,0,0,0,0,0,0,0,0,0,0,0,0,0,0,0,0,0,0,0,0,0,0,0,0,0,0.3257,0.3257,0,0.3251,0.3251,0.3251,0.3212,0.3211,0.321,0.3209,0.3206,0.3207,0.3208,0,0,0,0,0,0,0,0,0,0,0,0,0,0.3237,0.3238,0.3257,0.3257,0.3257,0.3251,0.3251,0.3251,0.3212,0.3211,0.321,0.3209,0.3206,0.3207,0.3208,0,0,0,0,0,0,0,0,0,0,0,0,0,0.324,0.3238,0.3257,0.3237,0.3235,0.3251,0.3251,0.3251,0.3212,0.3211,0.321,0.3208,0.3206,0.3207,0.3208,0.3244,0,0,0.3212,0.3213,0,0,0,0,0,0,0,0,0.324,0.3241,0.324,0.3238,0.3236,0.3231,0.3243,0.3249,0.3213,0.3221,0.3209,0.3208,0.3216,0.3216,0.3218,0.3244,0.3244,0.3212,0.3213,0.3213,0.3214,0,0,0,0,0,0,0,0.324,0.3241,0.3255,0.324,0.3237,0.3229,0.3228,0.3244,0.3227,0.322,0.3217,0.3217,0.3215,0.3217,0.3218,0.3244,0.3212,0.3213,0.3214,0.3214,0.33,0.3302,0,0,0,0,0,0,0.3242,0.3241,0.3255,0.3254,0.3234,0.323,0.3229,0.3234,0.3226,0.3224,0.3218,0.3215,0.3216,0.3217,0.3218,0.326,0.3213,0.3215,0.3215,0.3299,0.3301,0.3302,0,0,0,0,0,0,0.3242,0.3244,0.3255,0.3247,0.3248,0.3232,0.3238,0.3235,0.3237,0.3225,0.3222,0.3224,0.3215,0.3216,0.3238,0.326,0.3215,0.3216,0.3297,0.3299,0.3302,0.3345,0,0,0,0,0,0,0.3242,0.3244,0.3257,0.3247,0.3248,0.3275,0.3239,0.3235,0.3239,0.3235,0.3229,0.3227,0.3214,0.3236,0.3239,0.326,0.3217,0.3295,0.3298,0.3301,0.3342,0.3349,0.3355,0,0,0,0,0,0.3241,0.327,0.3258,0.326,0.3264,0.3276,0.3276,0.3259,0.3241,0.3254,0.3246,0.3227,0.3256,0.3239,0.3242,0.3264,0.3294,0.3297,0.3301,0.3339,0.3347,0.3354,0,0,0,0,0,0,0.3283,0.3268,0.3255,0.3281,0.328,0.3269,0.3286,0.3269,0.3274,0.327,0.325,0.3249,0.3274,0.3271,0.3252,0.3299,0.3272,0.3276,0.33,0.3308,0.3314,0.3315,0.3218,0,0,0,0,0,0.3295,0.3305,0.3292,0.3317,0.3317,0.3301,0.3306,0.3293,0.3291,0.3291,0.3285,0.3285,0.3294,0.3301,0.3308,0.3341,0.334,0.3357,0.3364,0.3369,0.3373,0.3391,0.3399,0.3314,0.3314,0.3314,0,0,0.3321,0.3314,0.3322,0.3325,0.3323,0.3335,0.3301,0.3315,0.3324,0.3293,0.3314,0.3309,0.3308,0.3336,0.3347,0.3334,0.3396,0.3373,0.3378,0.3379,0.3395,0.3403,0.3411,0.3316,0.3316,0.3315,0,0,0.3374,0.3369,0.339,0.3388,0.3384,0.3373,0.3378,0.337,0.3366,0.3386,0.3363,0.3374,0.339,0.339,0.3392,0.3445,0.3429,0.3449,0.3483,0.35,0.3507,0.3513,0.3533,0.354,0.3453,0.3453,0.3453,0,0.3407,0.3422,0.3402,0.3418,0.342,0.3392,0.3413,0.3412,0.3412,0.3415,0.3399,0.3419,0.3416,0.3444,0.3457,0.3459,0.3465,0.345,0.3507,0.3513,0.3518,0.3537,0.3544,0.3455,0.3455,0.3455,0.3454,0,0.3463,0.3475,0.3492,0.3491,0.3495,0.3514,0.3497,0.3504,0.3491,0.3483,0.3504,0.3499,0.3506,0.3511,0.3499,0.3537,0.3529,0.3511,0.3483,0.3529,0.3546,0.3553,0.3459,0.3458,0.3457,0.3457,0,0,0.3543,0.3531,0.3537,0.3537,0.3531,0.354,0.3557,0.3563,0.357,0.357,0.3585,0.3599,0.3582,0.3585,0.3572,0.3587,0.3631,0.3567,0.3567,0.358,0.3674,0.3688,0.3697,0.3619,0.362,0.3621,0.3674,0,0.3594,0.3622,0.3605,0.3636,0.3647,0.362,0.3635,0.3634,0.3626,0.3635,0.3627,0.3638,0.3614,0.3616,0.363,0.3622,0.3649,0.3618,0.3634,0.3635,0.3636,0.3706,0.3721,0.3771,0.3681,0.3682,0.3683,0,0.3658,0.3661,0.3693,0.3685,0.3689,0.3702,0.3706,0.3715,0.3713,0.3707,0.3709,0.3693,0.371,0.3683,0.3707,0.3687,0.3692,0.3689,0.3691,0.3692,0.3662,0.371,0.3787,0.3795,0.3693,0.3692,0.3692,0,0.3714,0.3726,0.3746,0.3747,0.3738,0.3748,0.3745,0.3742,0.3746,0.375,0.3753,0.3759,0.3763,0.3768,0.3754,0.3735,0.3781,0.3752,0.3777,0.3778,0.3789,0.3789,0.3869,0.3791,0.3791,0.3791,0.3791,0,0.3774,0.3795,0.3771,0.3784,0.3807,0.3787,0.3811,0.3805,0.3802,0.3814,0.3792,0.3804,0.3784,0.3795,0.3784,0.3806,0.3808,0.3804,0.3801,0.3807,0.3807,0.381,0.3807,0.3793,0.3792,0.3792,0.3792,0,0.3841,0.3826,0.3847,0.3836,0.3834,0.3852,0.3843,0.3855,0.3846,0.3862,0.3864,0.385,0.3861,0.3848,0.3858,0.3851,0.3881,0.3873,0.3882,0.388,0.3906,0.3904,0.3991,0.4002,0.3917,0.3918,0.3919,0,0.388,0.3895,0.3886,0.3892,0.389,0.39,0.3905,0.3886,0.3891,0.389,0.3903,0.3912,0.3918,0.3937,0.3929,0.3937,0.3929,0.3959,0.393,0.3935,0.393,0.393,0.3932,0.3965,0.3966,0.3967,0.3968,0,0.3952,0.3944,0.395,0.3954,0.396,0.3963,0.3964,0.397,0.395,0.3958,0.3969,0.3973,0.3983,0.3993,0.3998,0.3996,0.398,0.3977,0.3983,0.3989,0.3994,0.3993,0.3899,0.3975,0.3974,0.3974,0.3973,0.3973,0.4007,0.4019,0.4015,0.4023,0.4022,0.4023,0.4034,0.4026,0.4034,0.404,0.4029,0.4042,0.4041,0.4046,0.4046,0.4057,0.4044,0.4054,0.4056,0.4059,0.4063,0.3992,0.4058,0.4058,0.4058,0.4058,0.4057,0,0.4078,0.4074,0.4081,0.4083,0.409,0.4072,0.4072,0.4079,0.4091,0.4091,0.4097,0.411,0.4119,0.4111,0.4119,0.4129,0.4122,0.4132,0.4132,0.4132,0.4074,0.4068,0.4138,0.4138,0.4138,0.4138,0.4138,0.4138,0.4116,0.4136,0.4128,0.4148,0.4143,0.4156,0.4158,0.4159,0.4159,0.4173,0.4181,0.4175,0.4172,0.4179,0.4187,0.4185,0.4189,0.4203,0.4198,0.4144,0.4136,0.4128,0.4122,0.4204,0.4204,0.4255,0.4255,0.4256]},{"header":{"parameterUnit":"m.s-1","parameterCategory":1,"la1":30.2991,"la2":30.254,"lo1":-89.0895,"lo2":-89.0444,"dy":0.0017,"dx":0.0017,"nx":28,"ny":28,"refTime":"2026-02-09T03:00:00:Z","depth":0,"parameterNumber":3,"parameterNumberName":"V-component_of_WINDS"},"data":[0,0,0,0,0,0,0,0,0,0,0,0,0,0,0,0,0,0,0,0,0,0,0,0,0,0,0,0,0,0,0,0,0,0,0,0,0,0,0,0,0,0,0,0,0,0,0,0,0,0,0,0,0,0,0,0,0,0,1.3987,1.3987,0,1.405,1.405,1.4051,1.4054,1.4053,1.4052,1.4051,1.412,1.4122,1.4125,0,0,0,0,0,0,0,0,0,0,0,0,0,1.3871,1.3873,1.3986,1.3987,1.3988,1.405,1.405,1.4051,1.4054,1.4053,1.4052,1.4051,1.4119,1.4122,1.4125,0,0,0,0,0,0,0,0,0,0,0,0,0,1.3927,1.3874,1.3986,1.3997,1.3998,1.4049,1.405,1.4052,1.4054,1.4053,1.4052,1.4051,1.4118,1.4121,1.4125,1.4172,0,0,1.4137,1.4138,0,0,0,0,0,0,0,0,1.3924,1.3931,1.3994,1.3996,1.3998,1.4043,1.4035,1.4092,1.4054,1.4033,1.4051,1.405,1.4095,1.4101,1.4115,1.4175,1.4178,1.4137,1.4139,1.4141,1.4142,0,0,0,0,0,0,0,1.392,1.3928,1.4012,1.3995,1.3997,1.3999,1.4006,1.4046,1.407,1.4035,1.4035,1.4042,1.4096,1.4112,1.4117,1.4179,1.4137,1.414,1.4143,1.4144,1.4281,1.4282,0,0,0,0,0,0,1.3913,1.3925,1.401,1.4013,1.3957,1.4002,1.401,1.4029,1.4069,1.4074,1.4043,1.4042,1.4106,1.4112,1.4119,1.4177,1.4141,1.4145,1.4147,1.4279,1.4281,1.4282,0,0,0,0,0,0,1.3911,1.3921,1.4007,1.3969,1.398,1.4005,1.4028,1.4031,1.4047,1.4076,1.408,1.4055,1.4105,1.4114,1.4158,1.4179,1.4146,1.415,1.4278,1.428,1.4282,1.4292,0,0,0,0,0,0,1.3908,1.392,1.3937,1.397,1.3982,1.4044,1.4029,1.4033,1.4053,1.4052,1.4088,1.4092,1.4105,1.4153,1.4162,1.4184,1.4153,1.4276,1.4279,1.4281,1.429,1.4294,1.4298,0,0,0,0,0,1.3903,1.3938,1.3938,1.3948,1.4004,1.4045,1.4053,1.4065,1.4055,1.4073,1.4091,1.4091,1.4175,1.4157,1.4168,1.4191,1.4275,1.4278,1.4281,1.4288,1.4294,1.4298,0,0,0,0,0,0,1.3908,1.3943,1.3943,1.3989,1.4014,1.4046,1.4069,1.407,1.41,1.4098,1.4114,1.4122,1.4166,1.4183,1.4162,1.4239,1.4224,1.4229,1.4226,1.4231,1.4235,1.4231,1.4156,0,0,0,0,0,1.3915,1.3944,1.3973,1.4011,1.4023,1.4044,1.4062,1.407,1.4097,1.4108,1.413,1.4157,1.419,1.4211,1.4243,1.4292,1.4301,1.4314,1.4317,1.432,1.4325,1.4354,1.436,1.4292,1.4292,1.4292,0,0,1.3928,1.3951,1.3968,1.4012,1.4033,1.4064,1.4053,1.4087,1.4111,1.4114,1.4157,1.4174,1.4206,1.4253,1.4275,1.4269,1.4346,1.4324,1.4327,1.433,1.4358,1.4364,1.437,1.4294,1.4294,1.4294,0,0,1.3969,1.3989,1.4023,1.4043,1.4074,1.4087,1.4095,1.4127,1.4138,1.4182,1.4185,1.4214,1.427,1.4292,1.4311,1.4361,1.4363,1.4371,1.4392,1.4419,1.4425,1.443,1.4449,1.4455,1.4375,1.4375,1.4375,0,1.3983,1.4029,1.404,1.4074,1.4094,1.4097,1.4132,1.4152,1.4192,1.4206,1.4198,1.4268,1.4289,1.4343,1.4355,1.4369,1.438,1.4368,1.4423,1.4428,1.4433,1.4451,1.4458,1.4376,1.4376,1.4376,1.4376,0,1.4045,1.4077,1.4101,1.4139,1.4161,1.4195,1.4213,1.4234,1.4239,1.4254,1.4299,1.4325,1.4362,1.4375,1.4381,1.443,1.4425,1.4419,1.4405,1.444,1.4457,1.4464,1.4378,1.4377,1.4377,1.4377,0,0,1.4092,1.4134,1.4143,1.416,1.4195,1.422,1.4255,1.4291,1.4309,1.4337,1.4367,1.4414,1.441,1.4431,1.444,1.4464,1.4503,1.4456,1.4457,1.4465,1.4559,1.4564,1.4572,1.4504,1.4505,1.4506,1.4557,0,1.4137,1.4198,1.4209,1.4263,1.4294,1.4297,1.4328,1.4353,1.4367,1.4396,1.4413,1.4446,1.4437,1.445,1.4474,1.4493,1.4522,1.4489,1.4534,1.4535,1.4527,1.4581,1.4585,1.4632,1.4564,1.4565,1.4566,0,1.4199,1.4227,1.4284,1.4314,1.4327,1.4355,1.4388,1.4415,1.4444,1.4453,1.4477,1.4483,1.4521,1.4503,1.4557,1.4534,1.4553,1.4565,1.4567,1.4573,1.4553,1.4589,1.4647,1.4655,1.4576,1.4576,1.4575,0,1.4229,1.4281,1.4322,1.4336,1.4372,1.4392,1.4408,1.4435,1.4456,1.4486,1.4499,1.4533,1.4552,1.4579,1.4595,1.4581,1.4647,1.4631,1.4657,1.4657,1.4672,1.4671,1.4735,1.4682,1.4682,1.4682,1.4681,0,1.428,1.4315,1.4336,1.4361,1.44,1.4413,1.4452,1.4468,1.4492,1.4522,1.4527,1.4554,1.4572,1.4603,1.4615,1.4658,1.4666,1.4676,1.4679,1.4676,1.4675,1.469,1.4687,1.4683,1.4683,1.4683,1.4682,0,1.432,1.4335,1.438,1.4411,1.4419,1.4447,1.4473,1.4499,1.4513,1.455,1.456,1.4583,1.4619,1.4637,1.4682,1.469,1.4739,1.474,1.4729,1.4731,1.4756,1.4754,1.4833,1.4845,1.4782,1.4783,1.4783,0,1.4352,1.4379,1.4412,1.4431,1.4447,1.4479,1.45,1.4513,1.4535,1.457,1.4591,1.4627,1.4657,1.4716,1.4737,1.4772,1.4774,1.48,1.478,1.4776,1.4776,1.4775,1.4778,1.4804,1.4804,1.4805,1.4805,0,1.4408,1.4414,1.4443,1.4475,1.45,1.4526,1.4552,1.4568,1.4586,1.461,1.4647,1.467,1.4716,1.4752,1.4789,1.4807,1.481,1.4811,1.4819,1.4817,1.481,1.4816,1.474,1.4809,1.4809,1.4809,1.4808,1.4808,1.4446,1.447,1.4497,1.4529,1.455,1.4574,1.4599,1.4617,1.4647,1.4685,1.4691,1.473,1.4759,1.4808,1.4827,1.4859,1.4854,1.4865,1.4868,1.4871,1.4873,1.4804,1.4866,1.4866,1.4866,1.4866,1.4865,0,1.4502,1.452,1.4549,1.4585,1.4611,1.461,1.4638,1.4661,1.4695,1.4721,1.475,1.4792,1.4828,1.4852,1.4888,1.4909,1.4911,1.4918,1.4917,1.4922,1.4875,1.4865,1.4916,1.4916,1.4916,1.4916,1.4916,1.4916,1.4535,1.4576,1.4585,1.4637,1.4655,1.4692,1.4709,1.4732,1.4752,1.4799,1.4828,1.4843,1.4869,1.4907,1.494,1.4946,1.496,1.4967,1.4974,1.493,1.4925,1.492,1.4911,1.497,1.497,1.5018,1.5018,1.5018]}]]